Volver al catálogo

COSMOS 1999

ActivoMilitarPO
NORAD 19790·PAYLOAD·🇷🇺 Russia

Lanzado Feb 10, 1989 desde Plesetsk Cosmodrome

Loading…

Próximos Pases (próximas 24 horas)

TLE

ActualizadoSource: Space-Track

Época: Sep 14, 2026, 00:49 UTC

1 19790U 89009F   26257.03463090  .00000006  00000-0 -23163-4 0  9995
2 19790  82.6131 269.9811 0019992  23.4625   4.5781 12.65752407736490

Sigue COSMOS 1999 en tiempo real con AllMySat

Download on the App Store